• En España
  • Lista de países
  • Para 7 días
  • Temperatura del agua
  • Mapa Satelital
  • El tiempo en el mapa
  • Informadores
  • user-avatar
    Iniciar sesión

    Tiempo cada hora Trzemietowo

    Hoy, 23 Julio, Lunes

    Tiempo Temperatura Precipitaciones Viento Presión Humedad
    00:00 +17°C° 0 mm 2 mps 749 mmHg 82%
    01:00 +18°C° 0 mm 1 mps 749 mmHg 83%
    02:00 +16°C° 0 mm 1 mps 749 mmHg 82%
    03:00 +16°C° 0 mm 1 mps 749 mmHg 82%
    04:00 +16°C° 0 mm 1 mps 749 mmHg 82%
    05:00 +18°C° 0 mm 1 mps 749 mmHg 76%
    06:00 +20°C° 0 mm 1 mps 749 mmHg 71%
    07:00 +22°C° 0 mm 1 mps 750 mmHg 65%
    08:00 +23°C° 0 mm 1 mps 750 mmHg 59%
    09:00 +25°C° 0 mm 1 mps 750 mmHg 53%
    10:00 +27°C° 0 mm 1 mps 750 mmHg 47%
    11:00 +27°C° 0 mm 1 mps 750 mmHg 45%
    12:00 +28°C° 0 mm 1 mps 750 mmHg 43%
    13:00 +29°C° 0 mm 1 mps 750 mmHg 41%
    14:00 +29°C° 0 mm 2 mps 750 mmHg 44%
    15:00 +28°C° 0 mm 2 mps 750 mmHg 46%
    16:00 +28°C° 0 mm 2 mps 750 mmHg 49%
    17:00 +27°C° 0,1 mm 2 mps 750 mmHg 56%
    18:00 +26°C° 0,1 mm 2 mps 750 mmHg 62%
    19:00 +24°C° 0,1 mm 2 mps 750 mmHg 69%
    20:00 +23°C° 0 mm 2 mps 750 mmHg 74%
    21:00 +21°C° 0 mm 2 mps 750 mmHg 79%
    22:00 +19°C° 0 mm 2 mps 750 mmHg 84%
    23:00 +19°C° 0 mm 2 mps 750 mmHg 85%

    Mañana, 24 Julio, Martes

    Tiempo Temperatura Precipitaciones Viento Presión Humedad
    00:00 +18°C° 0 mm 2 mps 750 mmHg 87%
    01:00 +17°C° 0 mm 2 mps 750 mmHg 88%
    02:00 +17°C° 0 mm 2 mps 750 mmHg 89%
    03:00 +17°C° 0 mm 2 mps 750 mmHg 90%
    04:00 +16°C° 0 mm 2 mps 750 mmHg 91%
    05:00 +18°C° 0 mm 2 mps 750 mmHg 86%
    06:00 +19°C° 0 mm 2 mps 750 mmHg 81%
    07:00 +21°C° 0 mm 2 mps 750 mmHg 75%
    08:00 +23°C° 0 mm 2 mps 750 mmHg 69%
    09:00 +25°C° 0 mm 2 mps 751 mmHg 63%
    10:00 +26°C° 0 mm 2 mps 751 mmHg 57%
    11:00 +27°C° 0 mm 2 mps 750 mmHg 56%
    12:00 +27°C° 0 mm 2 mps 750 mmHg 54%
    13:00 +28°C° 0 mm 2 mps 750 mmHg 53%
    14:00 +28°C° 0,1 mm 3 mps 750 mmHg 54%
    15:00 +28°C° 0,1 mm 3 mps 750 mmHg 55%
    16:00 +28°C° 0,1 mm 3 mps 749 mmHg 56%
    17:00 +27°C° 0 mm 3 mps 749 mmHg 61%
    18:00 +26°C° 0 mm 2 mps 749 mmHg 66%
    19:00 +25°C° 0 mm 2 mps 749 mmHg 70%
    20:00 +23°C° 0 mm 2 mps 750 mmHg 76%
    21:00 +21°C° 0 mm 2 mps 750 mmHg 81%
    22:00 +20°C° 0 mm 2 mps 750 mmHg 87%
    23:00 +19°C° 0 mm 2 mps 750 mmHg 89%

    Pasado mañana, 25 Julio, Miércoles

    Tiempo Temperatura Precipitaciones Viento Presión Humedad
    00:00 +18°C° 0 mm 2 mps 750 mmHg 91%
    01:00 +18°C° 0 mm 2 mps 750 mmHg 93%
    02:00 +17°C° 0 mm 2 mps 750 mmHg 94%
    03:00 +17°C° 0 mm 2 mps 750 mmHg 94%
    04:00 +17°C° 0 mm 2 mps 750 mmHg 94%
    05:00 +18°C° 0 mm 2 mps 750 mmHg 88%
    06:00 +20°C° 0 mm 2 mps 750 mmHg 81%
    07:00 +21°C° 0 mm 2 mps 750 mmHg 75%
    08:00 +24°C° 0 mm 2 mps 750 mmHg 67%
    09:00 +25°C° 0 mm 2 mps 750 mmHg 60%
    10:00 +27°C° 0 mm 2 mps 750 mmHg 53%
    11:00 +28°C° 0 mm 3 mps 750 mmHg 50%
    12:00 +29°C° 0 mm 3 mps 750 mmHg 47%
    13:00 +29°C° 0 mm 3 mps 749 mmHg 45%
    14:00 +29°C° 0 mm 3 mps 749 mmHg 47%
    15:00 +29°C° 0 mm 4 mps 749 mmHg 48%
    16:00 +29°C° 0 mm 4 mps 749 mmHg 50%
    17:00 +28°C° 0 mm 4 mps 749 mmHg 57%
    18:00 +26°C° 0 mm 4 mps 749 mmHg 64%
    19:00 +25°C° 0 mm 3 mps 749 mmHg 71%
    20:00 +24°C° 0 mm 3 mps 749 mmHg 76%
    21:00 +21°C° 0 mm 3 mps 749 mmHg 81%
    22:00 +20°C° 0 mm 3 mps 750 mmHg 86%
    23:00 +19°C° 0 mm 3 mps 750 mmHg 89%

    26 Julio, Jueves

    Tiempo Temperatura Precipitaciones Viento Presión Humedad
    00:00 +19°C° 0 mm 3 mps 750 mmHg 91%
    01:00 +18°C° 0 mm 2 mps 749 mmHg 93%
    02:00 +18°C° 0 mm 3 mps 750 mmHg 94%
    03:00 +18°C° 0 mm 3 mps 750 mmHg 94%
    04:00 +18°C° 0 mm 3 mps 750 mmHg 94%
    05:00 +19°C° 0 mm 3 mps 750 mmHg 89%
    06:00 +21°C° 0 mm 3 mps 750 mmHg 85%
    07:00 +22°C° 0 mm 3 mps 750 mmHg 80%
    08:00 +25°C° 0 mm 4 mps 750 mmHg 74%
    09:00 +26°C° 0 mm 4 mps 750 mmHg 69%
    10:00 +28°C° 0 mm 4 mps 750 mmHg 63%
    11:00 +28°C° 0,6 mm 4 mps 750 mmHg 61%
    12:00 +29°C° 0,6 mm 4 mps 749 mmHg 59%
    13:00 +30°C° 0,6 mm 4 mps 749 mmHg 58%
    14:00 +29°C° 1 mm 4 mps 749 mmHg 60%
    15:00 +29°C° 1 mm 4 mps 749 mmHg 62%
    16:00 +29°C° 1 mm 4 mps 749 mmHg 64%
    17:00 +28°C° 0,3 mm 4 mps 749 mmHg 70%
    18:00 +26°C° 0,3 mm 4 mps 749 mmHg 75%
    19:00 +25°C° 0,3 mm 3 mps 749 mmHg 80%
    20:00 +24°C° 0 mm 3 mps 749 mmHg 84%
    21:00 +22°C° 0 mm 3 mps 749 mmHg 87%
    22:00 +22°C° 0 mm 3 mps 749 mmHg 91%
    23:00 +21°C° 0,2 mm 3 mps 749 mmHg 92%

    27 Julio, Viernes

    Tiempo Temperatura Precipitaciones Viento Presión Humedad
    00:00 +21°C° 0,2 mm 3 mps 749 mmHg 94%
    01:00 +20°C° 0,2 mm 3 mps 749 mmHg 96%
    02:00 +20°C° 0,4 mm 3 mps 749 mmHg 96%
    03:00 +20°C° 0,4 mm 2 mps 749 mmHg 96%
    04:00 +20°C° 0,4 mm 2 mps 749 mmHg 97%
    05:00 +21°C° 0 mm 3 mps 749 mmHg 93%
    06:00 +22°C° 0 mm 3 mps 749 mmHg 90%
    07:00 +24°C° 0 mm 3 mps 750 mmHg 86%
    08:00 +26°C° 0 mm 3 mps 750 mmHg 78%
    09:00 +28°C° 0 mm 3 mps 750 mmHg 71%
    10:00 +29°C° 0 mm 3 mps 750 mmHg 63%
    11:00 +30°C° 0,1 mm 3 mps 749 mmHg 59%
    12:00 +31°C° 0,1 mm 3 mps 749 mmHg 55%
    13:00 +31°C° 0,1 mm 3 mps 749 mmHg 52%
    14:00 +31°C° 0,2 mm 3 mps 749 mmHg 53%
    15:00 +31°C° 0,2 mm 3 mps 749 mmHg 55%
    16:00 +31°C° 0,2 mm 3 mps 749 mmHg 56%
    17:00 +29°C° 0,7 mm 3 mps 749 mmHg 63%
    18:00 +28°C° 0,7 mm 3 mps 749 mmHg 70%
    19:00 +27°C° 0,7 mm 3 mps 749 mmHg 77%
    20:00 +26°C° 0,2 mm 3 mps 749 mmHg 80%
    21:00 +24°C° 0,2 mm 3 mps 749 mmHg 84%
    22:00 +22°C° 0,2 mm 3 mps 749 mmHg 88%
    23:00 +22°C° 0 mm 3 mps 749 mmHg 89%

    28 Julio, Sábado

    Tiempo Temperatura Precipitaciones Viento Presión Humedad
    00:00 +21°C° 0 mm 3 mps 749 mmHg 90%
    01:00 +21°C° 0 mm 2 mps 748 mmHg 92%
    02:00 +21°C° 0 mm 2 mps 749 mmHg 92%
    03:00 +21°C° 0 mm 2 mps 749 mmHg 93%
    04:00 +20°C° 0 mm 2 mps 749 mmHg 93%
    05:00 +21°C° 0 mm 2 mps 749 mmHg 90%
    06:00 +23°C° 0 mm 2 mps 749 mmHg 86%
    07:00 +24°C° 0 mm 3 mps 749 mmHg 83%
    08:00 +26°C° 1 mm 2 mps 749 mmHg 77%
    09:00 +27°C° 1 mm 2 mps 749 mmHg 71%
    10:00 +29°C° 1 mm 2 mps 749 mmHg 65%
    11:00 +30°C° 0,3 mm 2 mps 749 mmHg 62%
    12:00 +30°C° 0,3 mm 2 mps 749 mmHg 59%
    13:00 +31°C° 0,3 mm 2 mps 749 mmHg 55%
    14:00 +31°C° 0 mm 2 mps 749 mmHg 56%
    15:00 +31°C° 0 mm 3 mps 749 mmHg 57%
    16:00 +31°C° 0 mm 3 mps 749 mmHg 57%
    17:00 +30°C° 0,2 mm 3 mps 749 mmHg 63%
    18:00 +28°C° 0,2 mm 2 mps 749 mmHg 70%
    19:00 +27°C° 0,2 mm 2 mps 749 mmHg 76%
    20:00 +26°C° 0,5 mm 2 mps 749 mmHg 81%
    21:00 +25°C° 0,5 mm 2 mps 750 mmHg 85%
    22:00 +24°C° 0,5 mm 2 mps 750 mmHg 90%
    23:00 +24°C° 0,2 mm 2 mps 750 mmHg 91%
    Mostrar más